Flag for Austria Weather past 2 weeks in Melk, Lower Austria, Austria

Now
73 °F

Passing clouds.


Feels Like: 75 °F
Forecast: 57 / 71 °F
Wind: 2 mph from West

Location: Amstetten

Current Time: Jul 8, 2015 at 8:47:07 AM

Latest Report: Jul 8, 2015 at 8:00 AM


Visibility: N/A

Pressure: 29.82 "Hg

Humidity: 71%

Dew point: 63 °F

Location of MelkLocation

Historic Weather in Melk — Graph

°F

Melk temperature yesterday

Maximum temperature yesterday: 95 °F (at 4:00 PM)
Minimum temperature yesterday: 66 °F (at 6:00 AM)
Average temperature yesterday: 80 °F

Past Weeks' High & Low Weather Summary

 TemperatureHumidityPressure
High95 °F (Jul 5, 5:00 PM)100% (Jul 1, 3:00 AM)30.28 "Hg (Jul 1, 3:00 AM)
Low45 °F (Jun 25, 6:00 AM)24% (Jul 5, 6:00 PM)29.70 "Hg (Jul 8, 1:00 AM)
Average69 °F70%30.11 "Hg
* Reported Jun 23 7:00 AM — Jul 8 7:00 AM, Melk, Weather by CustomWeather, © 2015

Note: Actual official high and low records may vary slightly from our data, if they occured in-between our weather recording intervals... More about our weather records

Advertising

Melk weather history for previous 24 hours

 ConditionsComfort  
Time TempWeatherWind HumidityBarometerVisibility
7:00 AM
Wed, Jul 8
72 °FMild.2 mph73%29.83 "HgN/A
6:00 AM71 °FMild.2 mph76%29.86 "HgN/A
5:00 AM70 °FMild.2 mph78%29.80 "HgN/A
4:00 AM76 °FFog.2 mph60%29.81 "HgN/A
3:00 AM78 °FWarm.2 mph54%29.81 "HgN/A
2:00 AM82 °FWarm.7 mph49%29.78 "HgN/A
1:00 AM74 °FMild.1 mph90%29.70 "HgN/A
12:00 AM76 °FMild.1 mph88%29.70 "HgN/A
11:00 PM
Tue, Jul 7
78 °FWarm.No wind84%29.73 "HgN/A
10:00 PM80 °FWarm.No wind81%29.75 "HgN/A
9:00 PM85 °FWarm.No wind70%29.73 "HgN/A
8:00 PM90 °FHot.1 mph56%29.75 "HgN/A
7:00 PM91 °FHot.2 mph51%29.77 "HgN/A
6:00 PM94 °FExtremely hot.5 mph41%29.78 "HgN/A
5:00 PM95 °FExtremely hot.3 mph35%29.80 "HgN/A
4:00 PM95 °FExtremely hot.1 mph36%29.83 "HgN/A
3:00 PM93 °FHot.2 mph38%29.85 "HgN/A
2:00 PM91 °FHot.3 mph41%29.88 "HgN/A
1:00 PM89 °FHot.3 mph46%29.90 "HgN/A
12:00 PM85 °FWarm.5 mph53%29.93 "HgN/A
11:00 AM82 °FWarm.3 mph59%29.95 "HgN/A
10:00 AM79 °FWarm.3 mph62%29.98 "HgN/A
9:00 AM76 °FMild.3 mph67%30.00 "HgN/A
8:00 AM73 °FPassing clouds.2 mph77%30.02 "HgN/A
Weather by CustomWeather, © 2015

See weather overviewHow to use our weather pages